When you browse on this site, cookies collect data to enhance your experience and personalize the content and advertising you see.
Visit our Privacy Policy to learn more. By continuing to use the site, you agree to this use of cookies and data.
  • In Deutschland
  • Länderverzeichnis
  • Für 7 Tage
  • Wassertemperatur
  • Wetterkarte
  • Widgets
  • user-avatar
    Anmelden

    Stündliche Wetter Kchulna

    Heute, 22 September, Sonntag

    Zeit Temperatur Niederschläge Wind Luftdruck Luftfeuchtigkeit
    00:00 +29°C° 0 mm 1 m/S 755 mmHg 81%
    01:00 +29°C° 0 mm 1 m/S 755 mmHg 81%
    02:00 +29°C° 0 mm 1 m/S 755 mmHg 81%
    03:00 +29°C° 0 mm 1 m/S 754 mmHg 82%
    04:00 +27°C° 0.1 mm 0 m/S 754 mmHg 84%
    05:00 +26°C° 0.1 mm 0 m/S 755 mmHg 84%
    06:00 +26°C° 0 mm 0 m/S 755 mmHg 82%
    07:00 +30°C° 0 mm 1 m/S 756 mmHg 77%
    08:00 +31°C° 0 mm 1 m/S 756 mmHg 73%
    09:00 +32°C° 0 mm 1 m/S 756 mmHg 68%
    10:00 +33°C° 0.2 mm 1 m/S 756 mmHg 64%
    11:00 +35°C° 0.2 mm 2 m/S 756 mmHg 60%
    12:00 +37°C° 0.2 mm 2 m/S 756 mmHg 57%
    13:00 +36°C° 0.3 mm 1 m/S 755 mmHg 56%
    14:00 +36°C° 0.3 mm 1 m/S 754 mmHg 56%
    15:00 +36°C° 0.3 mm 1 m/S 754 mmHg 55%
    16:00 +34°C° 0.9 mm 1 m/S 754 mmHg 62%
    17:00 +33°C° 0.9 mm 1 m/S 754 mmHg 69%
    18:00 +31°C° 0.9 mm 2 m/S 754 mmHg 75%
    19:00 +31°C° 0.2 mm 2 m/S 754 mmHg 77%
    20:00 +30°C° 0.2 mm 2 m/S 755 mmHg 79%
    21:00 +30°C° 0.2 mm 2 m/S 756 mmHg 81%
    22:00 +29°C° 0.1 mm 2 m/S 756 mmHg 83%
    23:00 +29°C° 0.1 mm 1 m/S 756 mmHg 84%

    Morgen, 23 September, Montag

    Zeit Temperatur Niederschläge Wind Luftdruck Luftfeuchtigkeit
    00:00 +29°C° 0.1 mm 1 m/S 756 mmHg 85%
    01:00 +29°C° 0 mm 1 m/S 755 mmHg 86%
    02:00 +28°C° 0 mm 1 m/S 755 mmHg 87%
    03:00 +28°C° 0 mm 1 m/S 755 mmHg 87%
    04:00 +28°C° 0.1 mm 1 m/S 755 mmHg 88%
    05:00 +28°C° 0.1 mm 1 m/S 756 mmHg 88%
    06:00 +28°C° 0.1 mm 1 m/S 756 mmHg 88%
    07:00 +30°C° 1.3 mm 2 m/S 756 mmHg 83%
    08:00 +31°C° 1.3 mm 3 m/S 757 mmHg 77%
    09:00 +33°C° 1.3 mm 4 m/S 757 mmHg 72%
    10:00 +34°C° 1.5 mm 4 m/S 757 mmHg 71%
    11:00 +34°C° 1.5 mm 4 m/S 756 mmHg 70%
    12:00 +34°C° 1.5 mm 5 m/S 756 mmHg 69%
    13:00 +34°C° 0.2 mm 5 m/S 756 mmHg 68%
    14:00 +34°C° 0.2 mm 5 m/S 755 mmHg 68%
    15:00 +34°C° 0.2 mm 5 m/S 755 mmHg 68%
    16:00 +33°C° 0 mm 4 m/S 755 mmHg 72%
    17:00 +32°C° 0 mm 4 m/S 755 mmHg 76%
    18:00 +30°C° 0 mm 3 m/S 755 mmHg 80%
    19:00 +29°C° 0 mm 3 m/S 756 mmHg 82%
    20:00 +29°C° 0 mm 3 m/S 756 mmHg 83%
    21:00 +29°C° 0 mm 3 m/S 757 mmHg 84%
    22:00 +29°C° 0 mm 3 m/S 757 mmHg 85%
    23:00 +29°C° 0 mm 3 m/S 757 mmHg 86%

    übermorgen, 24 September, Dienstag

    Zeit Temperatur Niederschläge Wind Luftdruck Luftfeuchtigkeit
    00:00 +28°C° 0 mm 3 m/S 757 mmHg 86%
    01:00 +28°C° 0.1 mm 3 m/S 756 mmHg 87%
    02:00 +28°C° 0.1 mm 3 m/S 756 mmHg 87%
    03:00 +28°C° 0.1 mm 3 m/S 756 mmHg 88%
    04:00 +28°C° 0 mm 3 m/S 756 mmHg 88%
    05:00 +28°C° 0 mm 3 m/S 756 mmHg 88%
    06:00 +27°C° 0 mm 3 m/S 756 mmHg 89%
    07:00 +29°C° 0 mm 4 m/S 757 mmHg 84%
    08:00 +30°C° 0 mm 4 m/S 757 mmHg 79%
    09:00 +32°C° 0 mm 5 m/S 758 mmHg 73%
    10:00 +33°C° 0.4 mm 5 m/S 757 mmHg 71%
    11:00 +34°C° 0.4 mm 5 m/S 757 mmHg 68%
    12:00 +34°C° 0.4 mm 6 m/S 757 mmHg 66%
    13:00 +34°C° 1.2 mm 5 m/S 756 mmHg 68%
    14:00 +33°C° 1.2 mm 5 m/S 756 mmHg 71%
    15:00 +33°C° 1.2 mm 4 m/S 755 mmHg 73%
    16:00 +32°C° 1.6 mm 4 m/S 755 mmHg 78%
    17:00 +30°C° 1.6 mm 3 m/S 756 mmHg 83%
    18:00 +29°C° 1.6 mm 2 m/S 756 mmHg 87%
    19:00 +28°C° 0.7 mm 2 m/S 757 mmHg 88%
    20:00 +28°C° 0.7 mm 2 m/S 757 mmHg 88%
    21:00 +28°C° 0.7 mm 2 m/S 758 mmHg 89%
    22:00 +28°C° 0.8 mm 3 m/S 758 mmHg 90%
    23:00 +28°C° 0.8 mm 3 m/S 758 mmHg 91%

    25 September, Mittwoch

    Zeit Temperatur Niederschläge Wind Luftdruck Luftfeuchtigkeit
    00:00 +27°C° 0.8 mm 3 m/S 758 mmHg 91%
    01:00 +27°C° 1.8 mm 4 m/S 758 mmHg 92%
    02:00 +27°C° 1.8 mm 4 m/S 757 mmHg 93%
    03:00 +26°C° 1.8 mm 4 m/S 757 mmHg 93%
    04:00 +26°C° 0.5 mm 4 m/S 757 mmHg 93%
    05:00 +26°C° 0.5 mm 4 m/S 758 mmHg 93%
    06:00 +26°C° 0.5 mm 4 m/S 758 mmHg 93%
    07:00 +26°C° 0.8 mm 4 m/S 758 mmHg 93%
    08:00 +27°C° 0.8 mm 3 m/S 759 mmHg 93%
    09:00 +27°C° 0.8 mm 3 m/S 760 mmHg 93%
    10:00 +27°C° 2 mm 4 m/S 760 mmHg 93%
    11:00 +27°C° 2 mm 4 m/S 760 mmHg 93%
    12:00 +27°C° 2 mm 4 m/S 760 mmHg 94%
    13:00 +27°C° 0.5 mm 4 m/S 759 mmHg 93%
    14:00 +27°C° 0.5 mm 4 m/S 759 mmHg 92%
    15:00 +27°C° 0.5 mm 5 m/S 758 mmHg 92%
    16:00 +26°C° 0.2 mm 4 m/S 758 mmHg 93%
    17:00 +26°C° 0.2 mm 4 m/S 758 mmHg 94%
    18:00 +26°C° 0.2 mm 4 m/S 759 mmHg 95%
    19:00 +26°C° 0.2 mm 4 m/S 759 mmHg 95%
    20:00 +26°C° 0.2 mm 3 m/S 760 mmHg 95%
    21:00 +26°C° 0.2 mm 3 m/S 760 mmHg 95%
    22:00 +26°C° 0.5 mm 3 m/S 760 mmHg 95%
    23:00 +26°C° 0.5 mm 3 m/S 760 mmHg 96%

    26 September, Donnerstag

    Zeit Temperatur Niederschläge Wind Luftdruck Luftfeuchtigkeit
    00:00 +26°C° 0.5 mm 3 m/S 760 mmHg 96%
    01:00 +26°C° 1.2 mm 3 m/S 760 mmHg 96%
    02:00 +26°C° 1.2 mm 3 m/S 760 mmHg 97%
    03:00 +26°C° 1.2 mm 3 m/S 759 mmHg 97%
    04:00 +25°C° 1 mm 3 m/S 759 mmHg 97%
    05:00 +25°C° 1 mm 3 m/S 760 mmHg 97%
    06:00 +25°C° 1 mm 3 m/S 760 mmHg 97%
    07:00 +26°C° 0.3 mm 3 m/S 760 mmHg 96%
    08:00 +26°C° 0.3 mm 2 m/S 760 mmHg 95%
    09:00 +26°C° 0.3 mm 2 m/S 761 mmHg 95%
    10:00 +26°C° 0 mm 2 m/S 761 mmHg 93%
    11:00 +27°C° 0 mm 1 m/S 760 mmHg 92%
    12:00 +27°C° 0 mm 1 m/S 760 mmHg 90%
    13:00 +28°C° 0 mm 1 m/S 759 mmHg 87%
    14:00 +28°C° 0 mm 2 m/S 758 mmHg 84%
    15:00 +29°C° 0 mm 2 m/S 758 mmHg 81%
    16:00 +28°C° 0.3 mm 2 m/S 758 mmHg 85%
    17:00 +28°C° 0.3 mm 2 m/S 758 mmHg 88%
    18:00 +27°C° 0.3 mm 2 m/S 758 mmHg 91%
    19:00 +27°C° 0.1 mm 1 m/S 758 mmHg 92%
    20:00 +26°C° 0.1 mm 1 m/S 759 mmHg 93%
    21:00 +26°C° 0.1 mm 1 m/S 759 mmHg 94%
    22:00 +26°C° 0 mm 1 m/S 759 mmHg 95%
    23:00 +26°C° 0 mm 1 m/S 759 mmHg 95%

    27 September, Freitag

    Zeit Temperatur Niederschläge Wind Luftdruck Luftfeuchtigkeit
    00:00 +24°C° 0 mm 0 m/S 759 mmHg 95%
    01:00 +24°C° 0 mm 0 m/S 759 mmHg 95%
    02:00 +24°C° 0 mm 0 m/S 758 mmHg 95%
    03:00 +25°C° 0 mm 1 m/S 758 mmHg 96%
    04:00 +25°C° 0 mm 1 m/S 758 mmHg 96%
    05:00 +25°C° 0 mm 1 m/S 758 mmHg 96%
    06:00 +25°C° 0 mm 1 m/S 758 mmHg 96%
    07:00 +27°C° 0 mm 2 m/S 759 mmHg 90%
    08:00 +28°C° 0 mm 2 m/S 759 mmHg 84%
    09:00 +30°C° 0 mm 2 m/S 759 mmHg 78%
    10:00 +31°C° 0 mm 2 m/S 759 mmHg 73%
    11:00 +32°C° 0 mm 2 m/S 758 mmHg 67%
    12:00 +34°C° 0 mm 2 m/S 757 mmHg 62%
    13:00 +34°C° 0.3 mm 2 m/S 756 mmHg 63%
    14:00 +33°C° 0.3 mm 1 m/S 755 mmHg 64%
    15:00 +33°C° 0.3 mm 1 m/S 754 mmHg 65%
    16:00 +31°C° 1.1 mm 1 m/S 755 mmHg 72%
    17:00 +30°C° 1.1 mm 1 m/S 755 mmHg 78%
    18:00 +28°C° 1.1 mm 1 m/S 755 mmHg 84%
    19:00 +28°C° 0.1 mm 1 m/S 755 mmHg 86%
    20:00 +28°C° 0.1 mm 1 m/S 756 mmHg 87%
    21:00 +27°C° 0.1 mm 1 m/S 756 mmHg 88%
    22:00 +27°C° 0 mm 1 m/S 756 mmHg 89%
    23:00 +27°C° 0 mm 1 m/S 756 mmHg 90%
    Mehr zeigen